Time,TemperatureF,DewpointF,PressureIn,WindDirection,WindDirectionDegrees,WindSpeedMPH,WindSpeedGustMPH,Humidity,HourlyPrecipIn,Conditions,Clouds,dailyrainin,SoftwareType,DateUTC
2013-03-10 00:00:00,46.9,42.6,29.80,South,177,0.0,8.0,85,0.04,,,0.10,meteohub,2013-03-10 06:00:00,
2013-03-10 00:05:00,46.9,42.4,29.80,SW,228,0.0,8.0,84,0.04,,,0.00,meteohub,2013-03-10 06:05:00,
2013-03-10 00:10:00,47.1,42.3,29.80,SSW,197,5.0,7.0,83,0.04,,,0.00,meteohub,2013-03-10 06:10:00,
2013-03-10 00:15:00,47.5,42.6,29.80,SSW,212,5.0,9.0,83,0.04,,,0.00,meteohub,2013-03-10 06:15:00,
2013-03-10 00:20:00,47.7,42.1,29.80,WSW,240,8.0,9.0,81,0.04,,,0.00,meteohub,2013-03-10 06:20:00,
2013-03-10 00:25:00,47.7,42.1,29.80,WNW,300,5.0,10.0,81,0.04,,,0.00,meteohub,2013-03-10 06:25:00,
2013-03-10 00:30:00,48.0,41.9,29.80,SW,221,0.0,10.0,79,0.03,,,0.00,meteohub,2013-03-10 06:30:00,
2013-03-10 00:36:00,48.4,42.3,29.80,SW,215,9.0,12.0,79,0.03,,,0.00,meteohub,2013-03-10 06:36:00,
2013-03-10 00:41:00,48.6,41.7,29.81,SSW,201,0.0,12.0,77,0.01,,,0.00,meteohub,2013-03-10 06:41:00,
2013-03-10 00:46:00,48.6,41.7,29.81,WNW,301,6.0,12.0,77,0.01,,,0.00,meteohub,2013-03-10 06:46:00,
2013-03-10 00:51:00,48.6,42.1,29.81,SSW,206,0.0,12.0,78,0.01,,,0.00,meteohub,2013-03-10 06:51:00,
2013-03-10 00:56:00,48.4,41.9,29.81,SW,222,0.0,11.0,78,0.01,,,0.00,meteohub,2013-03-10 06:56:00,
2013-03-10 01:02:00,48.0,42.1,29.81,SW,215,0.0,11.0,80,0.01,,,0.00,meteohub,2013-03-10 07:02:00,
2013-03-10 01:07:00,47.8,42.3,29.80,SW,214,0.0,11.0,81,0.00,,,0.00,meteohub,2013-03-10 07:07:00,
2013-03-10 01:13:00,47.5,42.3,29.81,SW,234,0.0,11.0,82,0.00,,,0.00,meteohub,2013-03-10 07:13:00,
2013-03-10 01:18:00,47.3,42.1,29.81,SW,224,0.0,9.0,82,0.00,,,0.00,meteohub,2013-03-10 07:18:00,
2013-03-10 01:23:00,47.3,42.1,29.81,SW,217,0.0,9.0,82,0.00,,,0.00,meteohub,2013-03-10 07:23:00,
2013-03-10 01:28:00,47.5,42.3,29.80,SW,214,0.0,9.0,82,0.00,,,0.00,meteohub,2013-03-10 07:28:00,
2013-03-10 01:33:00,47.5,42.3,29.80,SW,215,9.0,9.0,82,0.00,,,0.00,meteohub,2013-03-10 07:33:00,
2013-03-10 01:38:00,47.7,42.4,29.81,WSW,247,5.0,9.0,82,0.00,,,0.00,meteohub,2013-03-10 07:38:00,
2013-03-10 01:43:00,47.7,42.1,29.81,SSW,209,8.0,11.0,81,0.00,,,0.00,meteohub,2013-03-10 07:43:00,
2013-03-10 01:48:00,47.5,42.3,29.81,SW,232,0.0,11.0,82,0.00,,,0.00,meteohub,2013-03-10 07:48:00,
2013-03-10 01:53:00,47.5,42.8,29.81,WNW,283,0.0,11.0,84,0.00,,,0.00,meteohub,2013-03-10 07:53:00,
2013-03-10 01:58:00,47.1,42.8,29.81,WNW,283,0.0,11.0,85,0.01,,,0.01,meteohub,2013-03-10 07:58:00,
2013-03-10 03:03:00,46.4,43.0,29.81,WNW,283,0.0,-999.0,88,-99.99,,,0.01,meteohub,2013-03-10 08:03:00,
2013-03-10 03:08:00,45.7,42.6,29.81,WNW,283,0.0,-999.0,89,-99.99,,,0.01,meteohub,2013-03-10 08:08:00,
2013-03-10 03:13:00,45.3,42.6,29.81,WNW,283,0.0,-999.0,90,-99.99,,,0.01,meteohub,2013-03-10 08:13:00,
2013-03-10 03:18:00,45.1,42.6,29.81,WNW,283,0.0,-999.0,91,-99.99,,,0.02,meteohub,2013-03-10 08:18:00,
2013-03-10 03:23:00,44.8,42.6,29.81,WNW,283,0.0,-999.0,92,-99.99,,,0.02,meteohub,2013-03-10 08:23:00,
2013-03-10 03:28:00,44.8,42.6,29.81,WNW,283,0.0,-999.0,92,-99.99,,,0.03,meteohub,2013-03-10 08:28:00,
2013-03-10 03:33:00,44.8,42.8,29.80,WNW,283,0.0,-999.0,93,-99.99,,,0.03,meteohub,2013-03-10 08:33:00,
2013-03-10 03:38:00,44.8,42.8,29.80,WNW,283,0.0,-999.0,93,-99.99,,,0.04,meteohub,2013-03-10 08:38:00,
2013-03-10 03:43:00,44.8,42.8,29.80,WNW,283,0.0,-999.0,93,-99.99,,,0.05,meteohub,2013-03-10 08:43:00,
2013-03-10 03:48:00,44.8,43.2,29.80,WNW,283,0.0,-999.0,94,-99.99,,,0.05,meteohub,2013-03-10 08:48:00,
2013-03-10 03:53:00,44.8,43.2,29.79,WNW,283,0.0,-999.0,94,-99.99,,,0.06,meteohub,2013-03-10 08:53:00,
2013-03-10 03:59:00,44.8,43.2,29.81,WNW,283,0.0,-999.0,94,-99.99,,,0.07,meteohub,2013-03-10 08:59:00,
2013-03-10 04:04:00,44.8,43.2,29.81,WNW,283,0.0,-999.0,94,-99.99,,,0.07,meteohub,2013-03-10 09:04:00,
2013-03-10 04:09:00,44.6,43.0,29.80,WNW,283,0.0,-999.0,94,-99.99,,,0.07,meteohub,2013-03-10 09:09:00,
2013-03-10 04:14:00,44.8,43.2,29.81,WNW,283,0.0,-999.0,94,-99.99,,,0.08,meteohub,2013-03-10 09:14:00,
2013-03-10 04:19:00,45.0,43.3,29.81,WNW,283,0.0,-999.0,94,-99.99,,,0.08,meteohub,2013-03-10 09:19:00,
2013-03-10 04:24:00,45.0,43.3,29.81,WNW,283,5.0,-999.0,94,-99.99,,,0.11,meteohub,2013-03-10 09:24:00,
2013-03-10 04:29:00,45.7,44.4,29.81,SSW,213,0.0,-999.0,95,-99.99,,,0.13,meteohub,2013-03-10 09:29:00,
2013-03-10 04:34:00,46.2,44.8,29.81,West,272,5.0,-999.0,95,-99.99,,,0.14,meteohub,2013-03-10 09:34:00,
2013-03-10 04:39:00,46.8,45.3,29.80,West,267,6.0,-999.0,95,-99.99,,,0.15,meteohub,2013-03-10 09:39:00,
2013-03-10 04:44:00,47.1,45.7,29.81,West,261,6.0,-999.0,95,-99.99,,,0.16,meteohub,2013-03-10 09:44:00,
2013-03-10 04:49:00,47.5,46.0,29.81,SW,220,5.0,-999.0,95,-99.99,,,0.17,meteohub,2013-03-10 09:49:00,
2013-03-10 04:54:00,47.8,46.4,29.80,WSW,255,5.0,-999.0,95,-99.99,,,0.17,meteohub,2013-03-10 09:54:00,
2013-03-10 04:59:00,47.8,46.4,29.80,SW,220,11.0,-999.0,95,-99.99,,,0.18,meteohub,2013-03-10 09:59:00,
2013-03-10 05:04:00,47.8,46.2,29.80,SSW,211,0.0,-999.0,94,-99.99,,,0.18,meteohub,2013-03-10 10:04:00,
2013-03-10 05:09:00,47.8,46.2,29.80,SW,216,5.0,-999.0,94,-99.99,,,0.19,meteohub,2013-03-10 10:09:00,
2013-03-10 05:14:00,47.8,46.2,29.80,SW,222,0.0,-999.0,94,-99.99,,,0.19,meteohub,2013-03-10 10:14:00,
2013-03-10 05:19:00,47.7,46.0,29.80,SW,218,0.0,-999.0,94,-99.99,,,0.20,meteohub,2013-03-10 10:19:00,
2013-03-10 05:24:00,47.5,45.9,29.80,SW,218,0.0,-999.0,94,-99.99,,,0.20,meteohub,2013-03-10 10:24:00,
2013-03-10 05:29:00,47.3,45.7,29.79,SW,223,0.0,-999.0,94,-99.99,,,0.21,meteohub,2013-03-10 10:29:00,
2013-03-10 05:34:00,47.1,45.5,29.79,SSW,196,5.0,-999.0,94,-99.99,,,0.22,meteohub,2013-03-10 10:34:00,
2013-03-10 05:40:00,47.1,45.5,29.79,SSW,202,7.0,-999.0,94,-99.99,,,0.24,meteohub,2013-03-10 10:40:00,
2013-03-10 05:45:00,46.9,45.3,29.79,SSW,202,0.0,-999.0,94,-99.99,,,0.25,meteohub,2013-03-10 10:45:00,
2013-03-10 05:50:00,46.8,45.1,29.79,SSW,213,0.0,-999.0,94,-99.99,,,0.25,meteohub,2013-03-10 10:50:00,
2013-03-10 05:55:00,46.8,45.1,29.80,SW,230,5.0,-999.0,94,-99.99,,,0.26,meteohub,2013-03-10 10:55:00,
2013-03-10 06:00:00,46.6,45.1,29.79,West,270,6.0,-999.0,95,-99.99,,,0.31,meteohub,2013-03-10 11:00:00,
2013-03-10 06:05:00,46.6,45.1,29.78,SSW,208,6.0,-999.0,95,-99.99,,,0.31,meteohub,2013-03-10 11:05:00,
2013-03-10 06:10:00,46.6,45.1,29.78,SSW,205,7.0,-999.0,95,-99.99,,,0.32,meteohub,2013-03-10 11:10:00,
2013-03-10 06:15:00,46.6,45.1,29.78,SSW,211,0.0,-999.0,95,-99.99,,,0.32,meteohub,2013-03-10 11:15:00,
2013-03-10 06:20:00,46.6,45.1,29.78,SSW,199,6.0,-999.0,95,-99.99,,,0.32,meteohub,2013-03-10 11:20:00,
2013-03-10 06:25:00,46.6,45.1,29.79,West,263,8.0,-999.0,95,-99.99,,,0.33,meteohub,2013-03-10 11:25:00,
2013-03-10 06:30:00,46.6,45.0,29.79,SSW,211,9.0,-999.0,94,-99.99,,,0.33,meteohub,2013-03-10 11:30:00,
2013-03-10 06:35:00,46.6,45.0,29.79,SW,232,8.0,-999.0,94,-99.99,,,0.33,meteohub,2013-03-10 11:35:00,
2013-03-10 06:40:00,46.8,45.1,29.79,SSW,201,0.0,-999.0,94,-99.99,,,0.34,meteohub,2013-03-10 11:40:00,
2013-03-10 06:45:00,46.6,45.0,29.78,SW,221,5.0,-999.0,94,-99.99,,,0.35,meteohub,2013-03-10 11:45:00,
2013-03-10 06:50:00,46.6,45.0,29.78,SSW,193,6.0,-999.0,94,-99.99,,,0.35,meteohub,2013-03-10 11:50:00,
2013-03-10 06:55:00,46.8,45.1,29.77,South,184,7.0,-999.0,94,-99.99,,,0.36,meteohub,2013-03-10 11:55:00,
2013-03-10 07:00:00,46.8,45.1,29.75,South,190,6.0,-999.0,94,-99.99,,,0.37,meteohub,2013-03-10 12:00:00,
2013-03-10 07:05:00,46.8,45.1,29.75,South,182,6.0,-999.0,94,-99.99,,,0.38,meteohub,2013-03-10 12:05:00,
2013-03-10 07:10:00,46.9,45.3,29.74,South,183,5.0,-999.0,94,-99.99,,,0.39,meteohub,2013-03-10 12:10:00,
2013-03-10 07:15:00,46.9,45.3,29.75,West,259,13.0,-999.0,94,-99.99,,,0.39,meteohub,2013-03-10 12:15:00,
2013-03-10 07:20:00,46.9,45.3,29.75,West,263,0.0,-999.0,94,-99.99,,,0.39,meteohub,2013-03-10 12:20:00,
2013-03-10 07:25:00,46.9,45.3,29.75,West,259,0.0,-999.0,94,-99.99,,,0.39,meteohub,2013-03-10 12:25:00,
2013-03-10 07:30:00,46.9,45.3,29.75,WSW,238,7.0,-999.0,94,-99.99,,,0.39,meteohub,2013-03-10 12:30:00,
2013-03-10 07:35:00,47.1,45.5,29.76,SSW,206,6.0,-999.0,94,-99.99,,,0.39,meteohub,2013-03-10 12:35:00,
2013-03-10 07:41:00,46.9,45.3,29.76,WSW,248,5.0,-999.0,94,-99.99,,,0.39,meteohub,2013-03-10 12:41:00,
2013-03-10 07:46:00,47.1,45.5,29.76,WSW,237,10.0,-999.0,94,-99.99,,,0.39,meteohub,2013-03-10 12:46:00,
2013-03-10 07:51:00,47.1,45.5,29.76,SW,221,5.0,-999.0,94,-99.99,,,0.39,meteohub,2013-03-10 12:51:00,
2013-03-10 07:56:00,47.1,45.5,29.77,WNW,297,6.0,-999.0,94,-99.99,,,0.40,meteohub,2013-03-10 12:56:00,
2013-03-10 08:01:00,47.1,45.5,29.77,SW,226,5.0,-999.0,94,-99.99,,,0.40,meteohub,2013-03-10 13:01:00,
2013-03-10 08:06:00,47.3,45.7,29.78,SW,233,5.0,-999.0,94,-99.99,,,0.40,meteohub,2013-03-10 13:06:00,
2013-03-10 08:11:00,47.3,45.7,29.77,SW,225,0.0,-999.0,94,-99.99,,,0.40,meteohub,2013-03-10 13:11:00,
2013-03-10 08:16:00,47.3,45.3,29.76,SSW,195,6.0,12.0,93,-99.99,,,0.40,meteohub,2013-03-10 13:16:00,
2013-03-10 08:21:00,47.5,45.5,29.77,SW,216,5.0,9.0,93,-99.99,,,0.40,meteohub,2013-03-10 13:21:00,
2013-03-10 08:26:00,47.5,45.3,29.78,SW,235,5.0,9.0,92,-99.99,,,0.40,meteohub,2013-03-10 13:26:00,
2013-03-10 08:31:00,47.7,45.5,29.79,SW,228,6.0,10.0,92,-99.99,,,0.40,meteohub,2013-03-10 13:31:00,
2013-03-10 08:36:00,47.8,45.0,29.79,West,259,5.0,11.0,90,-99.99,,,0.40,meteohub,2013-03-10 13:36:00,
2013-03-10 08:41:00,48.2,45.3,29.79,SSW,199,7.0,11.0,90,-99.99,,,0.40,meteohub,2013-03-10 13:41:00,
2013-03-10 08:46:00,48.6,45.1,29.79,SSW,207,0.0,11.0,88,-99.99,,,0.40,meteohub,2013-03-10 13:46:00,
2013-03-10 08:51:00,48.6,45.5,29.79,SW,235,5.0,13.0,89,-99.99,,,0.40,meteohub,2013-03-10 13:51:00,
2013-03-10 08:56:00,48.4,45.3,29.79,SW,216,9.0,13.0,89,-99.99,,,0.40,meteohub,2013-03-10 13:56:00,
2013-03-10 09:01:00,48.6,45.5,29.79,SSW,205,5.0,11.0,89,0.00,,,0.40,meteohub,2013-03-10 14:01:00,
2013-03-10 09:06:00,48.7,45.3,29.79,WSW,244,12.0,14.0,88,0.01,,,0.41,meteohub,2013-03-10 14:06:00,
2013-03-10 09:11:00,48.9,45.5,29.79,SSW,203,9.0,15.0,88,0.01,,,0.41,meteohub,2013-03-10 14:11:00,
2013-03-10 09:16:00,48.9,45.5,29.78,SSW,207,0.0,15.0,88,0.01,,,0.41,meteohub,2013-03-10 14:16:00,
2013-03-10 09:21:00,48.7,45.3,29.78,SSW,206,5.0,15.0,88,0.01,,,0.41,meteohub,2013-03-10 14:21:00,
2013-03-10 09:26:00,48.7,45.7,29.78,SW,214,5.0,12.0,89,0.01,,,0.41,meteohub,2013-03-10 14:26:00,
2013-03-10 09:32:00,48.6,45.7,29.78,SSW,202,5.0,12.0,90,0.01,,,0.41,meteohub,2013-03-10 14:32:00,
2013-03-10 09:37:00,48.6,45.7,29.78,SW,221,5.0,12.0,90,0.02,,,0.42,meteohub,2013-03-10 14:37:00,
2013-03-10 09:42:00,48.6,45.7,29.78,SW,218,8.0,9.0,90,0.02,,,0.42,meteohub,2013-03-10 14:42:00,
2013-03-10 09:47:00,48.6,46.0,29.78,SW,226,7.0,13.0,91,0.02,,,0.42,meteohub,2013-03-10 14:47:00,
2013-03-10 09:52:00,48.6,46.0,29.78,WNW,285,0.0,13.0,91,0.02,,,0.42,meteohub,2013-03-10 14:52:00,
2013-03-10 09:57:00,48.6,46.0,29.77,SW,236,8.0,13.0,91,0.03,,,0.43,meteohub,2013-03-10 14:57:00,
2013-03-10 10:02:00,48.7,46.2,29.77,WSW,253,5.0,15.0,91,0.03,,,0.43,meteohub,2013-03-10 15:02:00,
2013-03-10 10:07:00,48.6,46.4,29.78,SSW,204,6.0,15.0,92,0.03,,,0.44,meteohub,2013-03-10 15:07:00,
2013-03-10 10:12:00,48.6,46.4,29.77,SW,225,6.0,15.0,92,0.03,,,0.44,meteohub,2013-03-10 15:12:00,
2013-03-10 10:17:00,48.7,46.6,29.78,SW,218,0.0,13.0,92,0.03,,,0.44,meteohub,2013-03-10 15:17:00,
2013-03-10 10:22:00,48.7,46.6,29.77,SSW,208,0.0,13.0,92,0.03,,,0.44,meteohub,2013-03-10 15:22:00,
2013-03-10 10:27:00,48.9,46.8,29.76,SSW,209,0.0,10.0,92,0.03,,,0.44,meteohub,2013-03-10 15:27:00,
2013-03-10 10:32:00,49.3,47.1,29.76,SSW,209,6.0,10.0,92,0.03,,,0.44,meteohub,2013-03-10 15:32:00,
2013-03-10 10:37:00,49.6,47.1,29.76,South,188,5.0,10.0,91,0.02,,,0.44,meteohub,2013-03-10 15:37:00,
2013-03-10 10:42:00,49.8,47.3,29.76,SSW,213,10.0,10.0,91,0.02,,,0.44,meteohub,2013-03-10 15:42:00,
2013-03-10 10:47:00,50.4,47.8,29.75,SSW,207,0.0,9.0,91,0.02,,,0.44,meteohub,2013-03-10 15:47:00,
2013-03-10 10:52:00,50.9,48.0,29.74,SSW,207,5.0,10.0,90,0.02,,,0.44,meteohub,2013-03-10 15:52:00,
2013-03-10 10:57:00,51.1,48.0,29.73,SSW,193,0.0,10.0,89,0.01,,,0.44,meteohub,2013-03-10 15:57:00,
2013-03-10 11:02:00,51.3,47.8,29.71,South,187,5.0,10.0,88,0.01,,,0.44,meteohub,2013-03-10 16:02:00,
2013-03-10 11:07:00,51.3,47.8,29.72,SSW,199,0.0,10.0,88,0.00,,,0.44,meteohub,2013-03-10 16:07:00,
2013-03-10 11:12:00,50.9,47.1,29.74,SSW,201,0.0,9.0,87,0.00,,,0.44,meteohub,2013-03-10 16:12:00,
2013-03-10 11:17:00,50.5,47.1,29.75,SW,214,0.0,8.0,88,0.00,,,0.44,meteohub,2013-03-10 16:17:00,
2013-03-10 11:22:00,50.4,47.3,29.75,SW,214,0.0,8.0,89,0.00,,,0.44,meteohub,2013-03-10 16:22:00,
2013-03-10 11:27:00,50.2,47.1,29.75,SW,214,0.0,7.0,89,0.00,,,0.44,meteohub,2013-03-10 16:27:00,
2013-03-10 11:32:00,50.2,46.8,29.75,South,190,0.0,6.0,88,0.00,,,0.44,meteohub,2013-03-10 16:32:00,
2013-03-10 11:37:00,50.2,47.1,29.75,South,190,0.0,6.0,89,0.00,,,0.44,meteohub,2013-03-10 16:37:00,
2013-03-10 11:42:00,50.0,46.9,29.75,South,190,5.0,6.0,89,0.00,,,0.44,meteohub,2013-03-10 16:42:00,
2013-03-10 11:47:00,49.8,46.9,29.75,South,190,0.0,6.0,90,0.00,,,0.44,meteohub,2013-03-10 16:47:00,
2013-03-10 11:52:00,49.6,46.8,29.75,South,190,0.0,5.0,90,0.00,,,0.44,meteohub,2013-03-10 16:52:00,
2013-03-10 11:57:00,49.5,46.9,29.75,South,190,0.0,5.0,91,0.00,,,0.44,meteohub,2013-03-10 16:57:00,
2013-03-10 12:03:00,49.3,46.8,29.75,SSW,193,5.0,5.0,91,0.01,,,0.45,meteohub,2013-03-10 17:03:00,
2013-03-10 12:08:00,49.3,47.1,29.75,SSW,194,0.0,5.0,92,0.01,,,0.45,meteohub,2013-03-10 17:08:00,
2013-03-10 12:13:00,48.9,46.9,29.75,SSW,194,0.0,6.0,93,0.03,,,0.47,meteohub,2013-03-10 17:13:00,
2013-03-10 12:18:00,48.9,46.9,29.76,SSW,194,0.0,6.0,93,0.04,,,0.48,meteohub,2013-03-10 17:18:00,
2013-03-10 12:23:00,49.3,47.7,29.76,SSW,212,0.0,6.0,94,0.06,,,0.50,meteohub,2013-03-10 17:23:00,
2013-03-10 12:28:00,49.3,47.7,29.76,SW,230,0.0,6.0,94,0.08,,,0.51,meteohub,2013-03-10 17:28:00,
2013-03-10 12:33:00,49.3,47.7,29.76,SW,218,9.0,10.0,94,0.09,,,0.53,meteohub,2013-03-10 17:33:00,
2013-03-10 12:38:00,49.5,47.8,29.76,WSW,244,5.0,12.0,94,0.11,,,0.55,meteohub,2013-03-10 17:38:00,
2013-03-10 12:43:00,49.6,48.2,29.75,SSW,203,5.0,12.0,95,0.12,,,0.56,meteohub,2013-03-10 17:43:00,
2013-03-10 12:48:00,49.6,48.2,29.75,SSW,203,6.0,12.0,95,0.14,,,0.58,meteohub,2013-03-10 17:48:00,
2013-03-10 12:53:00,49.8,48.4,29.74,SSW,209,0.0,8.0,95,0.16,,,0.60,meteohub,2013-03-10 17:53:00,
2013-03-10 12:58:00,50.0,48.6,29.73,SW,228,5.0,9.0,95,0.16,,,0.61,meteohub,2013-03-10 17:58:00,
2013-03-10 13:03:00,50.2,48.7,29.73,WSW,240,0.0,9.0,95,0.18,,,0.63,meteohub,2013-03-10 18:03:00,
2013-03-10 13:08:00,50.4,48.9,29.73,SW,230,8.0,9.0,95,0.17,,,0.63,meteohub,2013-03-10 18:08:00,
2013-03-10 13:13:00,50.5,49.1,29.73,SW,220,0.0,10.0,95,0.17,,,0.64,meteohub,2013-03-10 18:13:00,
2013-03-10 13:18:00,50.5,49.5,29.72,SW,221,6.0,10.0,96,0.15,,,0.64,meteohub,2013-03-10 18:18:00,
2013-03-10 13:23:00,50.7,49.3,29.71,WNW,282,0.0,10.0,95,0.13,,,0.64,meteohub,2013-03-10 18:23:00,
2013-03-10 13:28:00,51.1,50.0,29.70,SW,232,0.0,7.0,96,0.13,,,0.65,meteohub,2013-03-10 18:28:00,
2013-03-10 13:34:00,51.3,50.2,29.69,SW,230,5.0,7.0,96,0.11,,,0.65,meteohub,2013-03-10 18:34:00,
2013-03-10 13:39:00,51.4,50.4,29.68,SSW,212,0.0,6.0,96,0.10,,,0.65,meteohub,2013-03-10 18:39:00,
2013-03-10 13:44:00,51.6,50.5,29.68,SSW,212,0.0,9.0,96,0.08,,,0.65,meteohub,2013-03-10 18:44:00,
2013-03-10 13:49:00,51.6,50.5,29.67,SSW,212,0.0,9.0,96,0.06,,,0.65,meteohub,2013-03-10 18:49:00,
2013-03-10 13:54:00,51.8,50.7,29.66,SSW,212,0.0,9.0,96,0.04,,,0.65,meteohub,2013-03-10 18:54:00,
2013-03-10 13:59:00,51.8,50.7,29.65,SSW,212,0.0,0.0,96,0.04,,,0.66,meteohub,2013-03-10 18:59:00,
2013-03-10 14:04:00,51.6,50.5,29.65,SSW,212,0.0,0.0,96,0.03,,,0.66,meteohub,2013-03-10 19:04:00,
2013-03-10 14:09:00,51.6,50.5,29.65,SSW,212,0.0,0.0,96,0.04,,,0.67,meteohub,2013-03-10 19:09:00,
2013-03-10 14:14:00,51.4,50.4,29.65,SSW,212,0.0,0.0,96,0.04,,,0.68,meteohub,2013-03-10 19:14:00,
2013-03-10 14:19:00,51.6,50.5,29.65,SSW,212,0.0,0.0,96,0.06,,,0.70,meteohub,2013-03-10 19:19:00,
2013-03-10 14:24:00,51.4,50.4,29.65,SSW,212,0.0,0.0,96,0.07,,,0.71,meteohub,2013-03-10 19:24:00,
2013-03-10 14:29:00,51.4,50.4,29.65,SSW,212,0.0,0.0,96,0.07,,,0.72,meteohub,2013-03-10 19:29:00,
2013-03-10 14:34:00,51.4,50.4,29.66,SSW,212,0.0,0.0,96,0.07,,,0.72,meteohub,2013-03-10 19:34:00,
2013-03-10 14:39:00,51.4,50.4,29.66,SSW,212,0.0,0.0,96,0.08,,,0.73,meteohub,2013-03-10 19:39:00,
2013-03-10 14:44:00,51.4,50.4,29.66,SSW,212,0.0,0.0,96,0.09,,,0.74,meteohub,2013-03-10 19:44:00,
2013-03-10 14:50:00,51.4,50.4,29.67,SSW,212,0.0,0.0,96,0.10,,,0.75,meteohub,2013-03-10 19:50:00,
2013-03-10 14:55:00,51.4,50.4,29.67,SW,222,5.0,5.0,96,0.10,,,0.76,meteohub,2013-03-10 19:55:00,
2013-03-10 15:00:00,51.3,50.2,29.67,South,175,0.0,9.0,96,0.10,,,0.76,meteohub,2013-03-10 20:00:00,
2013-03-10 15:05:00,51.1,50.0,29.67,South,175,0.0,9.0,96,0.11,,,0.79,meteohub,2013-03-10 20:05:00,
2013-03-10 15:11:00,51.1,50.0,29.67,SSW,195,0.0,6.0,96,0.11,,,0.80,meteohub,2013-03-10 20:11:00,
2013-03-10 15:16:00,51.1,50.0,29.66,SSW,195,0.0,5.0,96,0.12,,,0.82,meteohub,2013-03-10 20:16:00,
2013-03-10 15:21:00,51.1,50.0,29.66,SW,222,0.0,8.0,96,0.13,,,0.84,meteohub,2013-03-10 20:21:00,
2013-03-10 15:27:00,50.9,49.8,29.66,SW,222,0.0,8.0,96,0.13,,,0.85,meteohub,2013-03-10 20:27:00,
2013-03-10 15:33:00,50.7,49.6,29.66,SW,222,0.0,8.0,96,0.14,,,0.86,meteohub,2013-03-10 20:33:00,
2013-03-10 15:38:00,50.5,49.5,29.66,SW,222,0.0,0.0,96,0.16,,,0.89,meteohub,2013-03-10 20:38:00,
2013-03-10 15:43:00,50.4,49.3,29.65,SW,222,0.0,5.0,96,0.17,,,0.91,meteohub,2013-03-10 20:43:00,
2013-03-10 15:48:00,50.7,49.6,29.65,SW,222,0.0,5.0,96,0.17,,,0.92,meteohub,2013-03-10 20:48:00,
2013-03-10 15:54:00,50.7,49.6,29.65,SW,222,0.0,5.0,96,0.18,,,0.94,meteohub,2013-03-10 20:54:00,
2013-03-10 15:59:00,50.4,49.3,29.65,WNW,299,6.0,0.0,96,0.18,,,0.95,meteohub,2013-03-10 20:59:00,
2013-03-10 16:04:00,50.5,49.5,29.65,WNW,299,0.0,0.0,96,0.18,,,0.96,meteohub,2013-03-10 21:04:00,
2013-03-10 16:09:00,50.7,49.6,29.65,WNW,299,0.0,6.0,96,0.19,,,0.98,meteohub,2013-03-10 21:09:00,
2013-03-10 16:14:00,50.7,49.6,29.64,WNW,299,0.0,6.0,96,0.17,,,0.98,meteohub,2013-03-10 21:14:00,
2013-03-10 16:19:00,50.9,49.8,29.64,WNW,299,0.0,0.0,96,0.16,,,0.99,meteohub,2013-03-10 21:19:00,
2013-03-10 16:25:00,50.5,49.5,29.64,WNW,299,0.0,0.0,96,0.16,,,1.00,meteohub,2013-03-10 21:25:00,
2013-03-10 16:30:00,50.5,49.5,29.64,SSW,213,0.0,0.0,96,0.15,,,1.01,meteohub,2013-03-10 21:30:00,
2013-03-10 16:35:00,50.7,49.6,29.64,SSW,213,0.0,8.0,96,0.15,,,1.02,meteohub,2013-03-10 21:35:00,
2013-03-10 16:40:00,50.7,49.6,29.64,SSW,213,0.0,8.0,96,0.13,,,1.03,meteohub,2013-03-10 21:40:00,
2013-03-10 16:45:00,50.7,49.6,29.64,SSW,213,0.0,5.0,96,0.10,,,1.03,meteohub,2013-03-10 21:45:00,
2013-03-10 16:50:00,50.7,49.6,29.64,SSW,213,0.0,0.0,96,0.08,,,1.03,meteohub,2013-03-10 21:50:00,
2013-03-10 16:55:00,50.7,49.6,29.62,SSW,213,0.0,0.0,96,0.07,,,1.03,meteohub,2013-03-10 21:55:00,
2013-03-10 17:00:00,50.4,49.3,29.61,SSW,213,0.0,0.0,96,0.06,,,1.03,meteohub,2013-03-10 22:00:00,
2013-03-10 17:05:00,50.5,49.5,29.58,SSW,210,6.0,6.0,96,0.05,,,1.03,meteohub,2013-03-10 22:05:00,
2013-03-10 17:11:00,50.5,49.5,29.57,SSE,147,5.0,8.0,96,0.04,,,1.03,meteohub,2013-03-10 22:11:00,
2013-03-10 17:16:00,50.7,49.6,29.59,SSE,147,0.0,8.0,96,0.03,,,1.03,meteohub,2013-03-10 22:16:00,
2013-03-10 17:21:00,50.5,49.5,29.61,SSE,147,0.0,8.0,96,0.03,,,1.03,meteohub,2013-03-10 22:21:00,
2013-03-10 17:27:00,50.5,49.5,29.59,SSE,147,0.0,5.0,96,0.01,,,1.03,meteohub,2013-03-10 22:27:00,
2013-03-10 17:32:00,50.7,49.6,29.60,SSE,148,0.0,0.0,96,0.01,,,1.03,meteohub,2013-03-10 22:32:00,
2013-03-10 17:37:00,50.7,49.6,29.61,SSE,148,0.0,5.0,96,0.01,,,1.03,meteohub,2013-03-10 22:37:00,
2013-03-10 17:42:00,50.5,49.5,29.60,SSE,148,0.0,5.0,96,0.00,,,1.03,meteohub,2013-03-10 22:42:00,
2013-03-10 17:47:00,50.7,49.6,29.61,SW,221,0.0,5.0,96,0.00,,,1.03,meteohub,2013-03-10 22:47:00,
2013-03-10 17:52:00,50.2,49.3,29.62,West,271,6.0,6.0,97,0.00,,,1.03,meteohub,2013-03-10 22:52:00,
2013-03-10 17:57:00,50.7,49.8,29.61,SW,222,0.0,8.0,97,0.00,,,1.03,meteohub,2013-03-10 22:57:00,
2013-03-10 18:02:00,50.9,50.0,29.61,SW,222,0.0,8.0,97,0.00,,,1.03,meteohub,2013-03-10 23:02:00,
2013-03-10 18:07:00,50.9,50.0,29.61,SW,222,0.0,8.0,97,0.00,,,1.03,meteohub,2013-03-10 23:07:00,
2013-03-10 18:12:00,50.7,49.8,29.61,SW,222,0.0,5.0,97,0.00,,,1.03,meteohub,2013-03-10 23:12:00,
2013-03-10 18:18:00,50.5,49.6,29.62,SW,222,0.0,0.0,97,0.00,,,1.03,meteohub,2013-03-10 23:18:00,
2013-03-10 18:23:00,50.5,49.6,29.62,SW,221,0.0,0.0,97,0.00,,,1.03,meteohub,2013-03-10 23:23:00,
2013-03-10 18:28:00,50.4,49.5,29.62,SW,221,0.0,7.0,97,0.00,,,1.03,meteohub,2013-03-10 23:28:00,
2013-03-10 18:34:00,50.4,49.5,29.62,SSW,203,0.0,7.0,97,0.00,,,1.03,meteohub,2013-03-10 23:34:00,
2013-03-10 18:39:00,50.4,49.5,29.63,SW,231,5.0,8.0,97,0.00,,,1.03,meteohub,2013-03-10 23:39:00,
2013-03-10 18:44:00,50.4,49.5,29.63,WSW,245,6.0,10.0,97,0.00,,,1.03,meteohub,2013-03-10 23:44:00,
2013-03-10 18:49:00,50.2,49.3,29.63,SW,234,5.0,10.0,97,0.00,,,1.03,meteohub,2013-03-10 23:49:00,
2013-03-10 18:54:00,50.4,49.5,29.64,SW,234,6.0,11.0,97,0.00,,,1.03,meteohub,2013-03-10 23:54:00,
2013-03-10 18:59:00,50.4,49.5,29.64,SW,230,6.0,11.0,97,0.00,,,1.03,meteohub,2013-03-10 23:59:00,
2013-03-10 19:04:00,50.4,49.5,29.64,WSW,253,0.0,10.0,97,0.01,,,1.04,meteohub,2013-03-11 00:04:00,
2013-03-10 19:10:00,50.4,49.5,29.65,SSW,207,5.0,10.0,97,0.01,,,1.04,meteohub,2013-03-11 00:10:00,
2013-03-10 19:15:00,50.4,49.5,29.65,SW,228,6.0,11.0,97,0.01,,,1.04,meteohub,2013-03-11 00:15:00,
2013-03-10 19:20:00,50.4,49.5,29.64,SSW,207,7.0,14.0,97,0.01,,,1.04,meteohub,2013-03-11 00:20:00,
2013-03-10 19:25:00,50.2,49.3,29.64,WSW,253,6.0,14.0,97,0.01,,,1.04,meteohub,2013-03-11 00:25:00,
2013-03-10 19:30:00,50.2,49.3,29.64,WSW,241,0.0,14.0,97,0.01,,,1.04,meteohub,2013-03-11 00:30:00,
2013-03-10 19:36:00,50.0,49.1,29.64,SW,217,0.0,10.0,97,0.01,,,1.04,meteohub,2013-03-11 00:36:00,
2013-03-10 19:41:00,49.8,48.9,29.65,SW,229,0.0,10.0,97,0.01,,,1.04,meteohub,2013-03-11 00:41:00,
2013-03-10 19:46:00,49.8,48.9,29.65,West,267,0.0,9.0,97,0.01,,,1.04,meteohub,2013-03-11 00:46:00,
2013-03-10 19:51:00,49.8,48.9,29.65,WSW,253,6.0,9.0,97,0.01,,,1.04,meteohub,2013-03-11 00:51:00,
2013-03-10 19:57:00,49.8,48.9,29.65,SW,218,5.0,9.0,97,0.01,,,1.04,meteohub,2013-03-11 00:57:00,
2013-03-10 20:02:00,49.8,48.9,29.65,SW,219,0.0,10.0,97,0.00,,,1.04,meteohub,2013-03-11 01:02:00,
2013-03-10 20:07:00,49.8,48.9,29.65,WSW,245,5.0,10.0,97,0.00,,,1.04,meteohub,2013-03-11 01:07:00,
2013-03-10 20:12:00,49.8,48.9,29.66,SW,221,0.0,11.0,97,0.00,,,1.04,meteohub,2013-03-11 01:12:00,
2013-03-10 20:18:00,49.8,48.9,29.66,WSW,238,5.0,11.0,97,0.00,,,1.04,meteohub,2013-03-11 01:18:00,
2013-03-10 20:23:00,49.6,48.7,29.66,West,272,6.0,11.0,97,0.00,,,1.04,meteohub,2013-03-11 01:23:00,
2013-03-10 20:29:00,49.6,48.7,29.67,WSW,246,5.0,10.0,97,0.00,,,1.04,meteohub,2013-03-11 01:29:00,
2013-03-10 20:34:00,49.6,48.7,29.67,SW,228,5.0,12.0,97,0.00,,,1.04,meteohub,2013-03-11 01:34:00,
2013-03-10 20:39:00,49.6,48.7,29.67,West,268,5.0,12.0,97,0.00,,,1.04,meteohub,2013-03-11 01:39:00,
2013-03-10 20:44:00,49.6,48.7,29.67,SW,230,7.0,12.0,97,0.01,,,1.05,meteohub,2013-03-11 01:44:00,
2013-03-10 20:49:00,49.5,48.6,29.67,West,260,10.0,11.0,97,0.02,,,1.06,meteohub,2013-03-11 01:49:00,
2013-03-10 20:55:00,49.5,48.6,29.67,SSW,209,10.0,11.0,97,0.03,,,1.08,meteohub,2013-03-11 01:55:00,
2013-03-10 21:00:00,49.5,48.6,29.67,SW,225,5.0,13.0,97,0.05,,,1.09,meteohub,2013-03-11 02:00:00,
2013-03-10 21:05:00,49.5,48.6,29.67,SW,226,0.0,13.0,97,0.06,,,1.10,meteohub,2013-03-11 02:05:00,
2013-03-10 21:10:00,49.3,48.4,29.67,WSW,242,6.0,12.0,97,0.06,,,1.10,meteohub,2013-03-11 02:10:00,
2013-03-10 21:15:00,49.3,48.4,29.67,WSW,249,0.0,10.0,97,0.06,,,1.10,meteohub,2013-03-11 02:15:00,
2013-03-10 21:21:00,49.3,48.4,29.67,South,176,5.0,11.0,97,0.07,,,1.11,meteohub,2013-03-11 02:21:00,
2013-03-10 21:26:00,49.3,48.4,29.67,SSW,208,5.0,11.0,97,0.08,,,1.12,meteohub,2013-03-11 02:26:00,
2013-03-10 21:31:00,49.3,48.4,29.67,SSW,209,0.0,11.0,97,0.08,,,1.12,meteohub,2013-03-11 02:31:00,
2013-03-10 21:36:00,49.3,48.4,29.67,West,263,0.0,10.0,97,0.09,,,1.13,meteohub,2013-03-11 02:36:00,
2013-03-10 21:41:00,49.3,48.4,29.67,SW,232,7.0,10.0,97,0.08,,,1.13,meteohub,2013-03-11 02:41:00,
2013-03-10 21:46:00,49.3,48.4,29.67,West,265,0.0,10.0,97,0.08,,,1.14,meteohub,2013-03-11 02:46:00,
2013-03-10 21:51:00,49.3,48.4,29.67,SW,218,5.0,10.0,97,0.06,,,1.14,meteohub,2013-03-11 02:51:00,
2013-03-10 21:56:00,49.3,48.4,29.67,SW,215,8.0,14.0,97,0.05,,,1.14,meteohub,2013-03-11 02:56:00,
2013-03-10 22:02:00,49.3,48.4,29.67,WSW,238,0.0,16.0,97,0.06,,,1.15,meteohub,2013-03-11 03:02:00,
2013-03-10 22:07:00,49.3,48.4,29.67,SW,220,8.0,16.0,97,0.05,,,1.15,meteohub,2013-03-11 03:07:00,
2013-03-10 22:12:00,49.3,48.4,29.67,SW,233,12.0,16.0,97,0.06,,,1.16,meteohub,2013-03-11 03:12:00,
2013-03-10 22:17:00,49.3,48.4,29.67,SW,219,5.0,12.0,97,0.06,,,1.17,meteohub,2013-03-11 03:17:00,
2013-03-10 22:22:00,49.3,48.4,29.67,SW,226,6.0,14.0,97,0.08,,,1.19,meteohub,2013-03-11 03:22:00,
2013-03-10 22:27:00,49.3,48.4,29.67,West,275,0.0,18.0,97,0.09,,,1.21,meteohub,2013-03-11 03:27:00,
2013-03-10 22:32:00,49.3,48.4,29.67,West,267,0.0,18.0,97,0.10,,,1.22,meteohub,2013-03-11 03:32:00,
2013-03-10 22:38:00,49.3,48.4,29.67,WNW,284,0.0,18.0,97,0.11,,,1.24,meteohub,2013-03-11 03:38:00,
2013-03-10 22:43:00,49.3,48.4,29.67,SW,215,5.0,12.0,97,0.10,,,1.24,meteohub,2013-03-11 03:43:00,
2013-03-10 22:48:00,49.3,48.4,29.67,WSW,248,0.0,11.0,97,0.10,,,1.24,meteohub,2013-03-11 03:48:00,
2013-03-10 22:53:00,49.1,48.2,29.67,WNW,289,5.0,11.0,97,0.10,,,1.24,meteohub,2013-03-11 03:53:00,
2013-03-10 22:58:00,49.1,48.2,29.67,SW,230,5.0,10.0,97,0.10,,,1.24,meteohub,2013-03-11 03:58:00,
2013-03-10 23:00:00,49.1,48.2,29.67,SW,220,6.0,10.0,97,0.09,,,1.24,meteohub,2013-03-11 04:00:00,
2013-03-10 23:02:00,49.1,48.2,29.67,WNW,290,6.0,10.0,97,0.09,,,1.24,meteohub,2013-03-11 04:02:00,
2013-03-10 23:07:00,49.3,48.4,29.67,WSW,249,8.0,10.0,97,0.09,,,1.24,meteohub,2013-03-11 04:07:00,
2013-03-10 23:08:00,49.3,48.4,29.67,SW,223,6.0,10.0,97,0.09,,,1.24,meteohub,2013-03-11 04:08:00,
2013-03-10 23:13:00,49.3,48.4,29.67,West,259,8.0,13.0,97,0.07,,,1.24,meteohub,2013-03-11 04:13:00,
2013-03-10 23:18:00,49.3,48.4,29.67,SW,220,11.0,13.0,97,0.06,,,1.24,meteohub,2013-03-11 04:18:00,
2013-03-10 23:23:00,49.3,48.4,29.66,SSW,209,6.0,14.0,97,0.04,,,1.24,meteohub,2013-03-11 04:23:00,
2013-03-10 23:28:00,49.3,48.4,29.66,SW,218,8.0,14.0,97,0.02,,,1.24,meteohub,2013-03-11 04:28:00,
2013-03-10 23:33:00,49.3,48.4,29.66,SW,218,6.0,14.0,97,0.01,,,1.24,meteohub,2013-03-11 04:33:00,
2013-03-10 23:39:00,49.1,48.2,29.66,SW,233,8.0,13.0,97,0.00,,,1.24,meteohub,2013-03-11 04:39:00,
2013-03-10 23:44:00,49.1,48.2,29.66,SW,220,7.0,13.0,97,0.00,,,1.24,meteohub,2013-03-11 04:44:00,
2013-03-10 23:49:00,48.9,48.0,29.66,West,280,8.0,13.0,97,0.00,,,1.24,meteohub,2013-03-11 04:49:00,
2013-03-10 23:54:00,48.9,48.0,29.66,SW,228,6.0,14.0,97,0.00,,,1.24,meteohub,2013-03-11 04:54:00,
2013-03-10 23:59:00,48.9,48.0,29.65,WSW,242,10.0,14.0,97,0.00,,,1.24,meteohub,2013-03-11 04:59:00,